Regional Weather Roundup
Issued by NWS

Home | Current Version | Previous Version | Text Only | Print | Product List | Glossary On
Versions: 1 2 3 4 5 6 7 8 9 10 11 12 13 14 15 16 17 18 19 20 21 22 23 24 25 26 27 28 29 30 31 32 33 34 35 36 37 38 39 40 41 42 43 44 45 46 47 48 49 50
000
ASUS44 KLIX 210210
RWRLA
LOUISIANA WEATHER ROUNDUP
NATIONAL WEATHER SERVICE NEW ORLEANS LA
900 PM CDT SUN APR 20 2014

NOTE: "FAIR" INDICATES FEW OR NO CLOUDS BELOW 12,000 FEET WITH NO
      SIGNIFICANT WEATHER AND/OR OBSTRUCTIONS TO VISIBILITY.
      SKY/WX - SKY CONDITION AND SIGNIFICANT WEATHER.
      TMP - AIR TEMPERATURE.    DP   - DEWPOINT TEMPERATURE.
      RH  - RELATIVE HUMIDITY.  PRES - PRESSURE.
      HX  - HEAT INDEX.         WCI  - WIND CHILL INDEX.

*  THESE STATIONS ARE NOT NWS OR FAA STATIONS AND ARE NOT UNDER
   NWS QUALITY CONTROL.

LAZ040-048-061>063-065-066-069-210300-
SOUTHEAST LOUISIANA

CITY           SKY/WX    TMP DP  RH WIND       PRES   REMARKS
N.O. AUDUBON     N/A     72  62  69 MISG        N/A
N.O. INTL ARPT PTCLDY    70  63  78 S9        30.11R
N.O. LAKEFRONT CLEAR     70  63  78 SE14      30.12R
N.O. DOWNTOWN* FAIR      73  59  60 SE5       30.12R
SLIDELL        CLEAR     66  60  81 SE7       30.12R
BATON ROUGE    CLEAR     70  56  61 CALM      30.09R
BOOTHVILLE     CLEAR     62  58  86 E6        30.15R
BELLE CHASSE   CLEAR    N/A N/A N/A SE7       30.12R
BOGALUSA*        N/A     66  55  66 SE5       30.12R
GALLIANO*      CLEAR     65  61  85 CALM      30.12R
NEW ROADS*     FAIR      69  57  65 CALM      30.09R
GONZALES*      FAIR      67  54  63 S5        30.09R
HAMMOND*       CLEAR     66  55  68 CALM      30.11S
HOUMA*           N/A     67  61  80 S3        30.11S
PORT FOURCHON* CLEAR     68  63  83 SE7       30.13S

$$

LAZ041-044-053-054-210300-
SOUTHWEST LOUISIANA

CITY           SKY/WX    TMP DP  RH WIND       PRES   REMARKS
LAKE CHARLES   CLEAR     66  59  78 S3        30.09R
LAFAYETTE      CLEAR     68  57  68 SW6       30.09R
PATTERSON      CLEAR     66  61  82 S7        30.14S
SALT POINT       N/A     70  63  78 CALM      30.10S
NEW IBERIA     CLEAR     68  58  70 SW6       30.10R
CHENAULT AIRPK CLEAR     70  57  64 S6        30.10S

$$

LAZ027-028-210300-
CENTRAL LOUISIANA

CITY           SKY/WX    TMP DP  RH WIND       PRES   REMARKS
FORT POLK      CLEAR     69  56  62 S5        30.08R
ALEXANDRIA INT CLEAR     72  55  55 S6        30.06R
ALEXANDRIA     CLEAR     64  58  80 CALM      30.08R

$$

LAZ001-002-210300-
NORTHWEST LOUISIANA

CITY           SKY/WX    TMP DP  RH WIND       PRES   REMARKS
SHREVEPORT     CLOUDY    70  57  63 CALM      30.06S
BARKSDALE AFB  PTCLDY    68  59  73 CALM      30.06S
DTN SHREVEPORT PTCLDY    70  56  61 CALM      30.06S

$$

LAZ014-016-210300-
NORTHEAST LOUISIANA

CITY           SKY/WX    TMP DP  RH WIND       PRES   REMARKS
MONROE         PTCLDY    63  56  78 CALM      30.08R
TALLULAH       PTCLDY    68  60  75 CALM      30.08R

$$




USA.gov is the U.S. government's official web portal to all federal, state and local government web resources and services.